Location: Bakov nad Jizerou
(50.4784°N, 14.9394°E)
Time: 20:38:01
(UTC+00:00)

SL-8 R/B - Pass Details

Date: 30 October 2021
Orbit: 656 x 667 km, 48.4° (Epoch: 03 December)

Event Time Altitude Azimuth Distance (km) Brightness Sun altitude
Rises 19:10:08 0° 279° (W) 2,989 8.1 -33.7°
Reaches altitude 10° 19:13:07 10° 261° (W) 2,076 6.9 -34.1°
Enters shadow 19:14:46 15° 242° (WSW) 1,738 6.2 -34.4°
